Location: Unspecified
(0.0000°N, 0.0000°E)
Time: 09:06:02
(UTC+00:00)

Courier 1B - Visible Passes

Search period start: 28 August 2014 00:00
Search period end: 07 September 2014 00:00
Orbit: 963 x 1209 km, 28.3° (Epoch: 25 August)

Date Brightness Start Highest point End Pass type
(mag) Time Alt. Az. Time Alt. Az. Time Alt. Az.
28 Aug 8.5 03:50:14 44° S 03:51:24 47° SSE 03:58:48 10° E visible
28 Aug 9.5 19:08:26 10° WSW 19:12:48 18° SSW 19:17:19 10° SSE visible
29 Aug 9.4 03:00:09 28° ESE 03:00:09 28° ESE 03:04:21 10° E visible
29 Aug 7.9 04:47:04 26° WSW 04:51:56 77° NNW 04:59:37 10° NE visible
30 Aug 7.8 03:56:58 70° SSW 03:57:57 80° SSE 04:05:46 10° ENE visible
30 Aug 10.0 19:19:48 10° SSW 19:19:59 10° SSW 19:20:09 10° SSW visible
31 Aug 9.0 03:06:52 39° E 03:06:52 39° E 03:11:41 10° ENE visible
31 Aug 8.4 04:53:47 22° W 04:58:28 45° NNW 05:05:46 10° NE visible
31 Aug 9.7 18:22:47 10° SW 18:25:53 14° SSW 18:29:01 10° S visible
01 Sep 10.4 02:16:45 13° E 02:16:45 13° E 02:17:22 10° E visible
01 Sep 7.9 04:03:40 58° WNW 04:04:28 61° NNW 04:12:10 10° NE visible
02 Sep 8.8 03:13:31 42° NE 03:13:31 42° NE 03:18:22 10° ENE visible
02 Sep 9.1 05:00:26 15° WNW 05:05:09 27° NNW 05:11:28 10° NNE visible
03 Sep 10.2 02:23:20 15° ENE 02:23:20 15° ENE 02:24:23 10° ENE visible
03 Sep 8.6 04:10:15 35° NW 04:11:05 36° NNW 04:18:06 10° NE visible
04 Sep 9.1 03:20:03 33° NNE 03:20:03 33° NNE 03:24:32 10° NE visible
04 Sep 9.7 05:07:35 10° WNW 05:12:06 16° NNW 05:16:37 10° NNE visible
05 Sep 10.2 02:29:48 14° NE 02:29:48 14° NE 02:30:49 10° NE visible
05 Sep 9.3 04:16:42 21° NW 04:17:53 21° NNW 04:23:33 10° NNE visible
06 Sep 9.4 03:26:26 23° N 03:26:26 23° N 03:30:15 10° NNE visible
